^^
Station Historical Data
Daily Summary for January 28, 2018 Units:  English    Metric   Both
« Previous Day
Next Day »
Daily Weekly Monthly Yearly Custom
  High: Low: Average:
Temperature: TemperatureC °F -1.8 °F -0 °F
Dew Point: DewpointC °F -2.6 °F -0.9 °F
Humidity: Humidity% 93% 94%
Wind Speed: WindSpeedKMHmph 0.0mph 1.8mph
Wind Gust: WindSpeedGustKMHmph - -
Wind- - SE
Pressure: PressurehPa in 1002.9 in -
Precipitation: 1.5 in    
Historical Graphs
 
 
Tabular Data for January 28, 2018
Time Temperature Dew Point Pressure Wind Wind Speed Wind Gust Humidity Rainfall Rate (Hourly) solar Conditions
TemperatureC °F DewpointC °F PressurehPa in Calm     Humidity% HourlyPrecipMM in SoftwareType W/m2 Conditions
00:03 -0.2 °F -1.0 °F 1016.1 in West 1.9 mph 5.6 mph 94% 0.0 in WeatherDisplay:10.37 W/m2 RA
00:08 -0.2 °F -1.0 °F 1016.1 in Calm     94% 0.0 in WeatherDisplay:10.37 W/m2 RA
00:13 -0.2 °F -1.0 °F 1016.1 in West 0.6 mph   94% 0.0 in WeatherDisplay:10.37 W/m2 FEW
00:18 -0.2 °F -1.0 °F 1016.1 in Calm     94% 0.0 in WeatherDisplay:10.37 W/m2 FEW
00:23 -0.2 °F -1.0 °F 1016.1 in WSW 0.8 mph 3.2 mph 94% 0.0 in WeatherDisplay:10.37 W/m2 FEW
00:28 -0.2 °F -1.1 °F 1016.1 in WSW 0.5 mph 3.7 mph 94% 0.0 in WeatherDisplay:10.37 W/m2 FEW
00:33 -0.2 °F -1.1 °F 1016.1 in SW 1.0 mph 4.8 mph 94% 0.0 in WeatherDisplay:10.37 W/m2 FEW
00:38 -0.2 °F -1.1 °F 1016.1 in NW 1.0 mph 5.6 mph 94% 0.0 in WeatherDisplay:10.37 W/m2 FEW
00:43 -0.3 °F -1.1 °F 1016.1 in Calm     94% 0.0 in WeatherDisplay:10.37 W/m2 FEW
00:48 -0.3 °F -1.1 °F 1016.5 in Calm   5.6 mph 94% 0.0 in WeatherDisplay:10.37 W/m2 FEW
00:53 -0.3 °F -1.2 °F 1016.5 in Calm     94% 0.0 in WeatherDisplay:10.37 W/m2 FEW
00:58 -0.4 °F -1.2 °F 1016.5 in Calm   5.6 mph 94% 0.0 in WeatherDisplay:10.37 W/m2 FEW
01:03 -0.4 °F -1.4 °F 1016.1 in WNW 3.1 mph 3.1 mph 93% 0.0 in WeatherDisplay:10.37 W/m2 FEW
01:08 -0.4 °F -1.4 °F 1016.1 in West 0.2 mph 5.6 mph 93% 0.0 in WeatherDisplay:10.37 W/m2 FEW
01:13 -0.4 °F -1.4 °F 1016.1 in WSW 2.9 mph 3.7 mph 93% 0.0 in WeatherDisplay:10.37 W/m2 FEW
01:18 -0.4 °F -1.4 °F 1016.1 in NNW 1.1 mph 5.6 mph 93% 0.0 in WeatherDisplay:10.37 W/m2 FEW
01:23 -0.4 °F -1.4 °F 1016.1 in Calm     93% 0.0 in WeatherDisplay:10.37 W/m2 FEW
01:28 -0.4 °F -1.4 °F 1016.5 in Calm     93% 0.0 in WeatherDisplay:10.37 W/m2 FEW
01:33 -0.4 °F -1.4 °F 1016.5 in Calm     93% 0.0 in WeatherDisplay:10.37 W/m2 FEW
01:38 -0.4 °F -1.4 °F 1016.5 in Calm     93% 0.0 in WeatherDisplay:10.37 W/m2 FEW
01:43 -0.4 °F -1.4 °F 1016.5 in Calm     93% 0.0 in WeatherDisplay:10.37 W/m2 FEW
01:48 -0.4 °F -1.2 °F 1016.1 in Calm     94% 0.0 in WeatherDisplay:10.37 W/m2 FEW
01:53 -0.4 °F -1.4 °F 1016.1 in Calm     93% 0.0 in WeatherDisplay:10.37 W/m2 FEW
01:58 -0.4 °F -1.4 °F 1016.1 in Calm     93% 0.0 in WeatherDisplay:10.37 W/m2 FEW
02:03 -0.4 °F -1.4 °F 1016.1 in Calm     93% 0.0 in WeatherDisplay:10.37 W/m2 FEW
02:08 -0.4 °F -1.2 °F 1016.1 in Calm     94% 0.0 in WeatherDisplay:10.37 W/m2 FEW
02:13 -0.4 °F -1.2 °F 1016.1 in Calm     94% 0.0 in WeatherDisplay:10.37 W/m2 FEW
02:18 -0.3 °F -1.2 °F 1016.1 in Calm     94% 0.0 in WeatherDisplay:10.37 W/m2 FEW
02:23 -0.3 °F -1.2 °F 1016.1 in Calm     94% 0.0 in WeatherDisplay:10.37 W/m2 FEW
02:28 -0.3 °F -1.2 °F 1016.1 in South 1.6 mph 4.8 mph 94% 0.0 in WeatherDisplay:10.37 W/m2 FEW
02:33 -0.3 °F -1.2 °F 1016.1 in Calm   1.6 mph 94% 0.0 in WeatherDisplay:10.37 W/m2 FEW
02:38 -0.4 °F -1.2 °F 1016.1 in Calm     94% 0.0 in WeatherDisplay:10.37 W/m2 FEW
02:43 -0.4 °F -1.3 °F 1016.1 in Calm     94% 0.0 in WeatherDisplay:10.37 W/m2 FEW
02:48 -0.4 °F -1.3 °F 1015.8 in Calm     94% 0.0 in WeatherDisplay:10.37 W/m2 FEW
02:53 -0.4 °F -1.3 °F 1015.8 in Calm   1.6 mph 94% 0.0 in WeatherDisplay:10.37 W/m2 FEW
02:58 -0.4 °F -1.3 °F 1016.1 in Calm     94% 0.0 in WeatherDisplay:10.37 W/m2 FEW
03:03 -0.4 °F -1.3 °F 1015.8 in Calm     94% 0.0 in WeatherDisplay:10.37 W/m2 FEW
03:08 -0.4 °F -1.3 °F 1015.8 in Calm     94% 0.0 in WeatherDisplay:10.37 W/m2 FEW
03:13 -0.4 °F -1.2 °F 1015.8 in Calm     94% 0.0 in WeatherDisplay:10.37 W/m2 FEW
03:18 -0.4 °F -1.2 °F 1015.8 in WSW 1.9 mph 5.6 mph 94% 0.0 in WeatherDisplay:10.37 W/m2 FEW
03:23 -0.4 °F -1.3 °F 1015.8 in Calm     94% 0.0 in WeatherDisplay:10.37 W/m2 FEW
03:28 -0.4 °F -1.3 °F 1015.8 in Calm     94% 0.0 in WeatherDisplay:10.37 W/m2 FEW
03:33 -0.5 °F -1.3 °F 1015.8 in Calm     94% 0.0 in WeatherDisplay:10.37 W/m2 FEW
03:38 -0.6 °F -1.4 °F 1015.5 in Calm     94% 0.0 in WeatherDisplay:10.37 W/m2 FEW
03:43 -0.6 °F -1.4 °F 1015.5 in Calm     94% 0.0 in WeatherDisplay:10.37 W/m2 FEW
03:48 -0.6 °F -1.4 °F 1015.5 in Calm     94% 0.0 in WeatherDisplay:10.37 W/m2 FEW
03:53 -0.6 °F -1.4 °F 1015.5 in Calm     94% 0.0 in WeatherDisplay:10.37 W/m2 FEW
03:58 -0.6 °F -1.4 °F 1015.5 in Calm     94% 0.0 in WeatherDisplay:10.37 W/m2 FEW
04:03 -0.6 °F -1.4 °F 1015.5 in Calm     94% 0.0 in WeatherDisplay:10.37 W/m2 FEW
04:08 -0.7 °F -1.5 °F 1015.1 in Calm     94% 0.0 in WeatherDisplay:10.37 W/m2 FEW
04:13 -0.7 °F -1.5 °F 1015.1 in Calm     94% 0.0 in WeatherDisplay:10.37 W/m2 FEW
04:18 -0.7 °F -1.5 °F 1015.1 in WSW 1.1 mph 3.7 mph 94% 0.0 in WeatherDisplay:10.37 W/m2 FEW
04:23 -0.8 °F -1.6 °F 1015.1 in Calm     94% 0.0 in WeatherDisplay:10.37 W/m2 FEW
04:28 -0.8 °F -1.6 °F 1015.1 in Calm     94% 0.0 in WeatherDisplay:10.37 W/m2 FEW
04:33 -0.8 °F -1.7 °F 1015.1 in Calm     94% 0.0 in WeatherDisplay:10.37 W/m2 FEW
04:38 -0.8 °F -1.7 °F 1015.1 in Calm     94% 0.0 in WeatherDisplay:10.37 W/m2 FEW
04:43 -0.8 °F -1.7 °F 1015.1 in Calm     94% 0.0 in WeatherDisplay:10.37 W/m2 FEW
04:48 -0.8 °F -1.7 °F 1015.1 in Calm     94% 0.0 in WeatherDisplay:10.37 W/m2 FEW
04:53 -0.8 °F -1.6 °F 1014.8 in Calm     94% 0.0 in WeatherDisplay:10.37 W/m2 FEW
04:58 -0.8 °F -1.7 °F 1014.8 in Calm     94% 0.0 in WeatherDisplay:10.37 W/m2 FEW
05:03 -0.8 °F -1.7 °F 1014.8 in Calm     94% 0.0 in WeatherDisplay:10.37 W/m2 FEW
05:08 -0.8 °F -1.7 °F 1014.8 in Calm     94% 0.0 in WeatherDisplay:10.37 W/m2 FEW
05:13 -0.9 °F -1.7 °F 1014.4 in Calm     94% 0.0 in WeatherDisplay:10.37 W/m2 FEW
05:18 -0.9 °F -1.7 °F 1014.4 in Calm     94% 0.0 in WeatherDisplay:10.37 W/m2 FEW
05:23 -0.9 °F -1.7 °F 1014.4 in Calm     94% 0.0 in WeatherDisplay:10.37 W/m2 FEW
05:28 -0.9 °F -1.7 °F 1014.4 in Calm     94% 0.0 in WeatherDisplay:10.37 W/m2 FEW
05:33 -0.9 °F -1.8 °F 1014.4 in Calm     94% 0.0 in WeatherDisplay:10.37 W/m2 FEW
05:38 -0.9 °F -1.8 °F 1014.1 in Calm     94% 0.0 in WeatherDisplay:10.37 W/m2 FEW
05:43 -1.0 °F -1.8 °F 1014.1 in Calm     94% 0.0 in WeatherDisplay:10.37 W/m2 FEW
05:48 -1.1 °F -1.9 °F 1014.1 in Calm     94% 0.0 in WeatherDisplay:10.37 W/m2 FEW
05:53 -1.1 °F -1.9 °F 1014.1 in Calm     94% 0.0 in WeatherDisplay:10.37 W/m2 FEW
05:58 -1.1 °F -1.9 °F 1014.1 in Calm     94% 0.0 in WeatherDisplay:10.37 W/m2 FEW
06:03 -1.1 °F -1.9 °F 1013.8 in Calm     94% 0.0 in WeatherDisplay:10.37 W/m2 FEW
06:08 -1.1 °F -1.9 °F 1013.8 in Calm     94% 0.0 in WeatherDisplay:10.37 W/m2 FEW
06:13 -1.1 °F -1.9 °F 1013.8 in Calm     94% 0.0 in WeatherDisplay:10.37 W/m2 FEW
06:18 -1.1 °F -1.9 °F 1013.4 in Calm     94% 0.0 in WeatherDisplay:10.37 W/m2 FEW
06:23 -1.2 °F -2.0 °F 1013.4 in Calm     94% 0.0 in WeatherDisplay:10.37 W/m2 FEW
06:28 -1.2 °F -2.0 °F 1013.4 in Calm     94% 0.0 in WeatherDisplay:10.37 W/m2 FEW
06:33 -1.2 °F -2.1 °F 1013.4 in Calm     94% 0.0 in WeatherDisplay:10.37 W/m2 FEW
06:38 -1.2 °F -2.1 °F 1013.4 in Calm     94% 0.0 in WeatherDisplay:10.37 W/m2 FEW
06:43 -1.2 °F -2.1 °F 1013.4 in Calm     94% 0.0 in WeatherDisplay:10.37 W/m2 FEW
06:48 -1.2 °F -2.1 °F 1013.1 in Calm     94% 0.0 in WeatherDisplay:10.37 W/m2 FEW
06:53 -1.2 °F -2.1 °F 1013.1 in Calm     94% 0.0 in WeatherDisplay:10.37 W/m2 FEW
06:58 -1.3 °F -2.2 °F 1013.1 in Calm     94% 0.0 in WeatherDisplay:10.37 W/m2 FEW
07:03 -1.4 °F -2.2 °F 1013.1 in Calm     94% 0.0 in WeatherDisplay:10.37 W/m2 FEW
07:08 -1.5 °F -2.3 °F 1013.1 in Calm     94% 0.0 in WeatherDisplay:10.37 W/m2 FEW
07:13 -1.5 °F -2.3 °F 1013.1 in Calm     94% 0.0 in WeatherDisplay:10.37 W/m2 FEW
07:18 -1.6 °F -2.4 °F 1013.1 in Calm     94% 0.0 in WeatherDisplay:10.37 W/m2 FEW
07:23 -1.7 °F -2.5 °F 1013.1 in Calm     94% 0.0 in WeatherDisplay:10.37 W/m2 FEW
07:28 -1.7 °F -2.6 °F 1012.8 in Calm     94% 0.0 in WeatherDisplay:10.37 W/m2 FEW
07:33 -1.8 °F -2.6 °F 1012.8 in Calm     94% 0.0 in WeatherDisplay:10.37 W/m2 FEW
07:38 -1.8 °F -2.6 °F 1012.8 in Calm     94% 0.0 in WeatherDisplay:10.37 W/m2 FEW
07:43 -1.7 °F -2.6 °F 1012.8 in Calm     94% 0.0 in WeatherDisplay:10.37 W/m2 FEW
07:48 -1.7 °F -2.5 °F 1012.8 in Calm     94% 0.0 in WeatherDisplay:10.37 W/m2 FEW
07:53 -1.6 °F -2.4 °F 1012.4 in ENE 2.9 mph 5.6 mph 94% 0.0 in WeatherDisplay:10.37 W/m2 FEW
07:58 -1.6 °F -2.4 °F 1012.4 in ENE 0.8 mph 3.7 mph 94% 0.0 in WeatherDisplay:10.37 W/m2 FEW
08:03 -1.5 °F -2.3 °F 1012.4 in Calm     94% 0.0 in WeatherDisplay:10.37 W/m2 FEW
08:08 -1.5 °F -2.3 °F 1012.1 in East 0.8 mph 3.7 mph 94% 0.0 in WeatherDisplay:10.37 W/m2 FEW
08:13 -1.4 °F -2.3 °F 1012.1 in Calm     94% 0.0 in WeatherDisplay:10.37 W/m2 FEW
08:18 -1.4 °F -2.3 °F 1012.1 in Calm     94% 0.0 in WeatherDisplay:10.37 W/m2 FEW
08:23 -1.4 °F -2.2 °F 1012.1 in Calm     94% 0.0 in WeatherDisplay:10.37 W/m2 FEW
08:28 -1.3 °F -2.2 °F 1012.1 in East 0.8 mph 3.7 mph 94% 0.0 in WeatherDisplay:10.37 W/m2 FEW
08:33 -1.3 °F -2.1 °F 1012.1 in Calm     94% 0.0 in WeatherDisplay:10.37 W/m2 FEW
08:38 -1.2 °F -2.1 °F 1011.7 in Calm     94% 0.0 in WeatherDisplay:10.37 W/m2 FEW
08:43 -1.2 °F -2.0 °F 1011.7 in Calm     94% 0.0 in WeatherDisplay:10.37 W/m2 FEW
08:48 -1.1 °F -1.9 °F 1011.7 in East 0.5 mph 3.2 mph 94% 0.0 in WeatherDisplay:10.37 W/m2 FEW
08:53 -1.1 °F -1.9 °F 1011.7 in East 0.5 mph 3.7 mph 94% 0.0 in WeatherDisplay:10.37 W/m2 FEW
08:58 -1.0 °F -1.8 °F 1011.7 in Calm     94% 0.0 in WeatherDisplay:10.37 W/m2 FEW
09:03 -0.9 °F -1.8 °F 1011.7 in Calm     94% 0.0 in WeatherDisplay:10.37 W/m2 FEW
09:08 -0.9 °F -1.7 °F 1011.7 in Calm     94% 0.0 in WeatherDisplay:10.37 W/m2 FEW
09:13 -0.8 °F -1.7 °F 1011.7 in Calm     94% 0.0 in WeatherDisplay:10.37 W/m2 FEW
09:18 -0.8 °F -1.6 °F 1011.7 in Calm     94% 0.0 in WeatherDisplay:10.37 W/m2 FEW
09:23 -0.7 °F -1.5 °F 1011.7 in Calm     94% 0.0 in WeatherDisplay:10.37 W/m2 FEW
09:28 -0.6 °F -1.4 °F 1011.4 in Calm     94% 0.0 in WeatherDisplay:10.37 W/m2 FEW
09:33 -0.6 °F -1.4 °F 1011.4 in Calm     94% 0.0 in WeatherDisplay:10.37 W/m2 FEW
09:37 -0.5 °F -1.3 °F 1011.4 in Calm     94% 0.0 in WeatherDisplay:10.37 W/m2 FEW
09:42 -0.4 °F -1.3 °F 1011.4 in Calm     94% 0.0 in WeatherDisplay:10.37 W/m2 FEW
09:47 -0.4 °F -1.2 °F 1011.4 in Calm     94% 0.0 in WeatherDisplay:10.37 W/m2 FEW
09:52 -0.3 °F -1.1 °F 1011.4 in East 1.6 mph 4.8 mph 94% 0.0 in WeatherDisplay:10.37 W/m2 FEW
09:57 -0.2 °F -1.0 °F 1011.4 in SSE 1.6 mph 3.7 mph 94% 0.0 in WeatherDisplay:10.37 W/m2 FEW
10:02 -0.1 °F -0.9 °F 1011.4 in Calm     94% 0.0 in WeatherDisplay:10.37 W/m2 FEW
10:07 0.0 °F -0.8 °F 1011.4 in SE 3.2 mph 3.7 mph 94% 0.0 in WeatherDisplay:10.37 W/m2 FEW
10:12 0.1 °F -0.8 °F 1011.4 in East 3.2 mph 3.2 mph 94% 0.0 in WeatherDisplay:10.37 W/m2 FEW
10:17 0.1 °F -0.7 °F 1011.1 in South 2.3 mph 3.2 mph 94% 0.0 in WeatherDisplay:10.37 W/m2 FEW
10:22 0.2 °F -0.7 °F 1011.1 in SSE 0.8 mph 5.6 mph 94% 0.0 in WeatherDisplay:10.37 W/m2 FEW
10:27 0.2 °F -0.7 °F 1011.1 in SE 1.1 mph 7.4 mph 94% 0.0 in WeatherDisplay:10.37 W/m2 FEW
10:33 0.2 °F -0.7 °F 1011.1 in Calm     94% 0.0 in WeatherDisplay:10.37 W/m2 FEW
10:38 0.2 °F -0.6 °F 1011.1 in Calm     94% 0.0 in WeatherDisplay:10.37 W/m2 FEW
10:44 0.3 °F -0.6 °F 1011.1 in Calm     94% 0.0 in WeatherDisplay:10.37 W/m2 FEW
10:49 0.3 °F -0.6 °F 1010.7 in South 2.3 mph 7.4 mph 94% 0.0 in WeatherDisplay:10.37 W/m2 FEW
10:54 0.3 °F -0.5 °F 1010.7 in Calm     94% 0.0 in WeatherDisplay:10.37 W/m2 FEW
10:59 0.3 °F -0.5 °F 1010.7 in SSE 0.5 mph 6.4 mph 94% 0.0 in WeatherDisplay:10.37 W/m2 FEW
11:04 0.3 °F -0.5 °F 1010.7 in ESE 2.3 mph 5.6 mph 94% 0.0 in WeatherDisplay:10.37 W/m2 FEW
11:09 0.3 °F -0.5 °F 1010.4 in SE 1.3 mph 1.6 mph 94% 0.0 in WeatherDisplay:10.37 W/m2 FEW
11:14 0.3 °F -0.5 °F 1010.4 in ESE 4.8 mph 14.8 mph 94% 0.0 in WeatherDisplay:10.37 W/m2 FEW
11:19 0.4 °F -0.4 °F 1010.4 in SSE 4.3 mph 5.6 mph 94% 0.0 in WeatherDisplay:10.37 W/m2 FEW
11:24 0.4 °F -0.4 °F 1010.4 in Calm     94% 0.0 in WeatherDisplay:10.37 W/m2 FEW
11:29 0.4 °F -0.4 °F 1010.4 in SSE 1.6 mph 5.6 mph 94% 0.0 in WeatherDisplay:10.37 W/m2 FEW
11:34 0.4 °F -0.4 °F 1010.4 in South 0.2 mph 5.6 mph 94% 0.0 in WeatherDisplay:10.37 W/m2 FEW
11:39 0.4 °F -0.4 °F 1010.0 in South 1.1 mph 5.6 mph 94% 0.0 in WeatherDisplay:10.37 W/m2 FEW
11:44 0.4 °F -0.4 °F 1010.0 in Calm     94% 0.0 in WeatherDisplay:10.37 W/m2 FEW
11:49 0.4 °F -0.4 °F 1010.0 in SSE 0.8 mph 5.6 mph 94% 0.0 in WeatherDisplay:10.37 W/m2 FEW
11:54 0.4 °F -0.4 °F 1010.0 in Calm     94% 0.0 in WeatherDisplay:10.37 W/m2 FEW
11:59 0.4 °F -0.4 °F 1009.7 in SE 4.7 mph 14.8 mph 94% 0.0 in WeatherDisplay:10.37 W/m2 FEW
12:04 0.4 °F -0.4 °F 1010.0 in SE 3.4 mph 9.3 mph 94% 0.0 in WeatherDisplay:10.37 W/m2 FEW
12:09 0.4 °F -0.4 °F 1009.7 in SE 3.5 mph 11.1 mph 94% 0.0 in WeatherDisplay:10.37 W/m2 FEW
12:14 0.4 °F -0.4 °F 1009.7 in Calm   5.6 mph 94% 0.0 in WeatherDisplay:10.37 W/m2 FEW
12:19 0.4 °F -0.4 °F 1009.7 in ENE 1.6 mph 9.3 mph 94% 0.0 in WeatherDisplay:10.37 W/m2 FEW
12:24 0.4 °F -0.4 °F 1009.4 in ESE 3.5 mph 5.6 mph 94% 0.0 in WeatherDisplay:10.37 W/m2 FEW
12:29 0.4 °F -0.4 °F 1009.4 in ESE 2.6 mph 14.8 mph 94% 0.0 in WeatherDisplay:10.37 W/m2 FEW
12:34 0.5 °F -0.3 °F 1009.4 in ESE 2.9 mph 13.0 mph 94% 0.0 in WeatherDisplay:10.37 W/m2 FEW
12:39 0.5 °F -0.3 °F 1009.4 in ESE 2.4 mph 11.1 mph 94% 0.0 in WeatherDisplay:10.37 W/m2 FEW
12:44 0.5 °F -0.3 °F 1009.4 in East 4.3 mph 11.1 mph 94% 0.0 in WeatherDisplay:10.37 W/m2 FEW
12:49 0.5 °F -0.3 °F 1009.0 in SE 5.5 mph 14.8 mph 94% 0.0 in WeatherDisplay:10.37 W/m2 FEW
12:54 0.5 °F -0.3 °F 1009.0 in ESE 4.3 mph 5.6 mph 94% 0.0 in WeatherDisplay:10.37 W/m2 FEW
12:59 0.6 °F -0.3 °F 1009.0 in East 2.1 mph 8.0 mph 94% 0.0 in WeatherDisplay:10.37 W/m2 FEW
13:04 0.6 °F -0.3 °F 1008.7 in SSE 1.3 mph 9.3 mph 94% 0.3 in WeatherDisplay:10.37 W/m2 RA
13:09 0.6 °F -0.3 °F 1008.7 in ESE 0.8 mph 11.1 mph 94% 0.3 in WeatherDisplay:10.37 W/m2 RA
13:14 0.6 °F -0.3 °F 1008.7 in SE 2.6 mph 5.6 mph 94% 0.3 in WeatherDisplay:10.37 W/m2 FEW
13:19 0.5 °F -0.3 °F 1008.4 in Calm   3.7 mph 94% 0.5 in WeatherDisplay:10.37 W/m2 RA
13:24 0.6 °F -0.3 °F 1008.4 in ESE 1.6 mph 3.7 mph 94% 0.5 in WeatherDisplay:10.37 W/m2 RA
13:29 0.6 °F -0.3 °F 1008.4 in SSE 1.4 mph 8.0 mph 94% 0.5 in WeatherDisplay:10.37 W/m2 RA
13:34 0.6 °F -0.3 °F 1008.4 in ESE 1.4 mph 5.6 mph 94% 0.8 in WeatherDisplay:10.37 W/m2 RA
13:39 0.6 °F -0.3 °F 1008.0 in SE 5.3 mph 11.1 mph 94% 0.8 in WeatherDisplay:10.37 W/m2 RA
13:44 0.5 °F -0.3 °F 1008.0 in SE 2.1 mph 3.2 mph 94% 0.8 in WeatherDisplay:10.37 W/m2 FEW
13:49 0.5 °F -0.3 °F 1008.0 in Calm   9.3 mph 94% 0.8 in WeatherDisplay:10.37 W/m2 FEW
13:54 0.5 °F -0.3 °F 1008.0 in East 0.2 mph 9.3 mph 94% 1.0 in WeatherDisplay:10.37 W/m2 RA
13:59 0.6 °F -0.3 °F 1007.7 in Calm     94% 1.0 in WeatherDisplay:10.37 W/m2 RA
14:04 0.6 °F -0.3 °F 1007.7 in SE 4.7 mph 4.8 mph 94% 0.8 in WeatherDisplay:10.37 W/m2 FEW
14:09 0.5 °F -0.3 °F 1007.7 in SE 4.8 mph 5.6 mph 94% 0.8 in WeatherDisplay:10.37 W/m2 FEW
14:14 0.5 °F -0.3 °F 1007.7 in SSE 2.1 mph 13.0 mph 94% 1.0 in WeatherDisplay:10.37 W/m2 RA
14:19 0.5 °F -0.3 °F 1007.7 in SE 1.9 mph 11.1 mph 94% 0.8 in WeatherDisplay:10.37 W/m2 RA
14:24 0.5 °F -0.3 °F 1007.3 in ESE 2.4 mph 3.7 mph 94% 0.5 in WeatherDisplay:10.37 W/m2 FEW
14:29 0.5 °F -0.3 °F 1007.3 in SSE 5.3 mph 5.6 mph 94% 0.5 in WeatherDisplay:10.37 W/m2 FEW
14:34 0.4 °F -0.4 °F 1007.3 in ESE 5.6 mph 11.1 mph 94% 0.5 in WeatherDisplay:10.37 W/m2 FEW
14:39 0.5 °F -0.3 °F 1007.3 in ENE 4.3 mph 16.7 mph 94% 0.5 in WeatherDisplay:10.37 W/m2 FEW
14:44 0.4 °F -0.4 °F 1007.3 in SSE 2.7 mph 6.4 mph 94% 0.5 in WeatherDisplay:10.37 W/m2 FEW
14:49 0.4 °F -0.4 °F 1007.3 in SE 2.9 mph 7.4 mph 94% 0.5 in WeatherDisplay:10.37 W/m2 FEW
14:54 0.4 °F -0.4 °F 1007.3 in SE 2.9 mph 5.6 mph 94% 0.3 in WeatherDisplay:10.37 W/m2 FEW
14:59 0.4 °F -0.4 °F 1007.0 in SE 4.5 mph 11.3 mph 94% 0.3 in WeatherDisplay:10.37 W/m2 FEW
15:04 0.5 °F -0.3 °F 1007.0 in South 1.9 mph 7.4 mph 94% 0.5 in WeatherDisplay:10.37 W/m2 RA
15:09 0.5 °F -0.3 °F 1007.0 in South 5.6 mph 18.5 mph 94% 0.5 in WeatherDisplay:10.37 W/m2 RA
15:14 0.5 °F -0.3 °F 1007.0 in ESE 6.4 mph 13.0 mph 94% 0.3 in WeatherDisplay:10.37 W/m2 FEW
15:19 0.5 °F -0.3 °F 1006.7 in SSE 1.0 mph 11.3 mph 94% 0.3 in WeatherDisplay:10.37 W/m2 FEW
15:24 0.5 °F -0.3 °F 1006.7 in ENE 4.7 mph 11.1 mph 94% 0.3 in WeatherDisplay:10.37 W/m2 FEW
15:29 0.5 °F -0.3 °F 1006.7 in ESE 3.1 mph 6.4 mph 94% 0.3 in WeatherDisplay:10.37 W/m2 FEW
15:34 0.5 °F -0.3 °F 1006.7 in South 6.0 mph 13.0 mph 94% 0.3 in WeatherDisplay:10.37 W/m2 FEW
15:39 0.5 °F -0.3 °F 1006.7 in Calm   5.6 mph 94% 0.3 in WeatherDisplay:10.37 W/m2 FEW
15:44 0.5 °F -0.3 °F 1006.3 in SE 4.0 mph 11.1 mph 94% 0.3 in WeatherDisplay:10.37 W/m2 FEW
15:49 0.5 °F -0.3 °F 1006.3 in SE 5.8 mph 11.1 mph 94% 0.3 in WeatherDisplay:10.37 W/m2 FEW
15:54 0.5 °F -0.3 °F 1006.3 in ESE 6.3 mph 14.8 mph 94% 0.3 in WeatherDisplay:10.37 W/m2 FEW
15:59 0.5 °F -0.3 °F 1006.3 in SE 6.8 mph 9.3 mph 94% 0.3 in WeatherDisplay:10.37 W/m2 FEW
16:04 0.5 °F -0.3 °F 1006.0 in ESE 3.9 mph 13.0 mph 94% 0.0 in WeatherDisplay:10.37 W/m2 FEW
16:09 0.5 °F -0.3 °F 1006.0 in ESE 7.6 mph 11.1 mph 94% 0.0 in WeatherDisplay:10.37 W/m2 FEW
16:14 0.5 °F -0.3 °F 1006.0 in East 1.6 mph 5.6 mph 94% 0.0 in WeatherDisplay:10.37 W/m2 FEW
16:19 0.5 °F -0.3 °F 1006.0 in East 1.0 mph 5.6 mph 94% 0.0 in WeatherDisplay:10.37 W/m2 FEW
16:24 0.5 °F -0.3 °F 1006.0 in SE 1.9 mph 11.1 mph 94% 0.0 in WeatherDisplay:10.37 W/m2 FEW
16:29 0.5 °F -0.3 °F 1005.6 in SE 5.8 mph 14.8 mph 94% 0.0 in WeatherDisplay:10.37 W/m2 FEW
16:34 0.5 °F -0.3 °F 1005.6 in SE 6.3 mph 18.5 mph 94% 0.0 in WeatherDisplay:10.37 W/m2 FEW
16:39 0.5 °F -0.3 °F 1005.6 in SE 6.6 mph 9.3 mph 94% 0.0 in WeatherDisplay:10.37 W/m2 FEW
16:44 0.5 °F -0.3 °F 1005.6 in East 3.7 mph 11.1 mph 94% 0.0 in WeatherDisplay:10.37 W/m2 FEW
16:49 0.4 °F -0.4 °F 1005.6 in SE 3.1 mph 11.1 mph 94% 0.0 in WeatherDisplay:10.37 W/m2 FEW
16:54 0.5 °F -0.3 °F 1005.6 in East 2.7 mph 7.4 mph 94% 0.0 in WeatherDisplay:10.37 W/m2 FEW
16:59 0.5 °F -0.3 °F 1005.6 in ESE 3.1 mph 13.0 mph 94% 0.0 in WeatherDisplay:10.37 W/m2 FEW
17:04 0.4 °F -0.4 °F 1005.3 in SE 6.0 mph 11.1 mph 94% 0.0 in WeatherDisplay:10.37 W/m2 FEW
17:09 0.5 °F -0.3 °F 1005.3 in East 1.4 mph 16.7 mph 94% 0.0 in WeatherDisplay:10.37 W/m2 FEW
17:14 0.5 °F -0.3 °F 1005.3 in SE 2.1 mph 5.6 mph 94% 0.0 in WeatherDisplay:10.37 W/m2 FEW
17:19 0.5 °F -0.3 °F 1005.3 in East 7.4 mph 9.3 mph 94% 0.0 in WeatherDisplay:10.37 W/m2 FEW
17:24 0.5 °F -0.3 °F 1005.3 in East 5.1 mph 7.4 mph 94% 0.0 in WeatherDisplay:10.37 W/m2 FEW
17:29 0.5 °F -0.3 °F 1005.3 in ESE 5.3 mph 18.5 mph 94% 0.3 in WeatherDisplay:10.37 W/m2 RA
17:34 0.5 °F -0.3 °F 1005.3 in East 3.1 mph 5.6 mph 94% 0.3 in WeatherDisplay:10.37 W/m2 RA
17:39 0.5 °F -0.3 °F 1005.3 in East 8.7 mph 9.3 mph 94% 0.3 in WeatherDisplay:10.37 W/m2 FEW
17:44 0.5 °F -0.3 °F 1005.0 in East 5.0 mph 11.1 mph 94% 0.3 in WeatherDisplay:10.37 W/m2 FEW
17:49 0.5 °F -0.3 °F 1005.0 in ESE 0.8 mph 5.6 mph 94% 0.3 in WeatherDisplay:10.37 W/m2 FEW
17:54 0.5 °F -0.3 °F 1005.0 in SE 6.0 mph 9.3 mph 94% 0.3 in WeatherDisplay:10.37 W/m2 FEW
17:59 0.5 °F -0.3 °F 1005.0 in East 8.2 mph 9.7 mph 94% 0.3 in WeatherDisplay:10.37 W/m2 FEW
18:04 0.5 °F -0.3 °F 1005.0 in ESE 2.1 mph 5.6 mph 94% 0.3 in WeatherDisplay:10.37 W/m2 FEW
18:09 0.5 °F -0.3 °F 1005.0 in ENE 6.4 mph 14.8 mph 94% 0.3 in WeatherDisplay:10.37 W/m2 FEW
18:14 0.5 °F -0.3 °F 1004.6 in SE 7.2 mph 16.7 mph 94% 0.3 in WeatherDisplay:10.37 W/m2 FEW
18:19 0.6 °F -0.3 °F 1004.6 in ENE 2.7 mph 11.1 mph 94% 0.3 in WeatherDisplay:10.37 W/m2 FEW
18:24 0.5 °F -0.3 °F 1004.6 in East 0.6 mph 11.1 mph 94% 0.3 in WeatherDisplay:10.37 W/m2 FEW
18:29 0.5 °F -0.3 °F 1004.6 in East 1.3 mph 7.4 mph 94% 0.0 in WeatherDisplay:10.37 W/m2 FEW
18:34 0.6 °F -0.3 °F 1004.6 in ESE 7.1 mph 13.0 mph 94% 0.0 in WeatherDisplay:10.37 W/m2 FEW
18:39 0.6 °F -0.3 °F 1004.6 in East 6.0 mph 11.1 mph 94% 0.0 in WeatherDisplay:10.37 W/m2 FEW
18:44 0.6 °F -0.3 °F 1004.6 in ESE 5.3 mph 14.8 mph 94% 0.0 in WeatherDisplay:10.37 W/m2 FEW
18:49 0.6 °F -0.3 °F 1004.3 in East 6.4 mph 11.3 mph 94% 0.0 in WeatherDisplay:10.37 W/m2 FEW
18:54 0.6 °F -0.3 °F 1004.3 in East 3.1 mph 7.4 mph 94% 0.0 in WeatherDisplay:10.37 W/m2 FEW
18:59 0.6 °F -0.3 °F 1004.3 in SE 4.8 mph 14.8 mph 94% 0.0 in WeatherDisplay:10.37 W/m2 FEW
19:04 0.6 °F -0.3 °F 1004.3 in East 4.3 mph 7.4 mph 94% 0.0 in WeatherDisplay:10.37 W/m2 FEW
19:09 0.6 °F -0.3 °F 1004.3 in ESE 1.0 mph 3.2 mph 94% 0.0 in WeatherDisplay:10.37 W/m2 FEW
19:14 0.6 °F -0.3 °F 1004.3 in East 5.0 mph 7.4 mph 94% 0.0 in WeatherDisplay:10.37 W/m2 FEW
19:19 0.6 °F -0.3 °F 1004.3 in East 1.1 mph 5.6 mph 94% 0.0 in WeatherDisplay:10.37 W/m2 FEW
19:24 0.6 °F -0.3 °F 1004.3 in East 1.9 mph 5.6 mph 94% 0.0 in WeatherDisplay:10.37 W/m2 FEW
19:29 0.6 °F -0.3 °F 1004.3 in East 4.0 mph 9.3 mph 94% 0.0 in WeatherDisplay:10.37 W/m2 FEW
19:34 0.6 °F -0.3 °F 1004.3 in South 1.8 mph 5.6 mph 94% 0.0 in WeatherDisplay:10.37 W/m2 FEW
19:39 0.6 °F -0.3 °F 1003.9 in NE 1.4 mph 5.6 mph 94% 0.0 in WeatherDisplay:10.37 W/m2 FEW
19:44 0.5 °F -0.3 °F 1003.9 in ENE 2.1 mph 9.3 mph 94% 0.0 in WeatherDisplay:10.37 W/m2 FEW
19:49 0.6 °F -0.3 °F 1003.9 in ESE 2.4 mph 9.3 mph 94% 0.0 in WeatherDisplay:10.37 W/m2 FEW
19:54 0.5 °F -0.3 °F 1003.9 in SE 6.1 mph 8.0 mph 94% 0.0 in WeatherDisplay:10.37 W/m2 FEW
19:59 0.5 °F -0.3 °F 1003.9 in SE 2.3 mph 6.4 mph 94% 0.0 in WeatherDisplay:10.37 W/m2 FEW
20:04 0.6 °F -0.3 °F 1003.9 in East 6.9 mph 13.0 mph 94% 0.0 in WeatherDisplay:10.37 W/m2 FEW
20:09 0.6 °F -0.3 °F 1003.9 in ESE 2.6 mph 9.3 mph 94% 0.0 in WeatherDisplay:10.37 W/m2 FEW
20:14 0.6 °F -0.3 °F 1003.9 in ESE 4.5 mph 11.3 mph 94% 0.0 in WeatherDisplay:10.37 W/m2 FEW
20:19 0.6 °F -0.3 °F 1003.9 in Calm   5.6 mph 94% 0.0 in WeatherDisplay:10.37 W/m2 FEW
20:24 0.6 °F -0.3 °F 1003.6 in ESE 5.6 mph 11.1 mph 94% 0.0 in WeatherDisplay:10.37 W/m2 FEW
20:29 0.6 °F -0.3 °F 1003.6 in ESE 0.6 mph 1.6 mph 94% 0.0 in WeatherDisplay:10.37 W/m2 FEW
20:34 0.6 °F -0.3 °F 1003.6 in ESE 7.9 mph 7.9 mph 94% 0.0 in WeatherDisplay:10.37 W/m2 FEW
20:39 0.6 °F -0.3 °F 1003.6 in ENE 5.1 mph 5.6 mph 94% 0.0 in WeatherDisplay:10.37 W/m2 FEW
20:44 0.6 °F -0.3 °F 1003.6 in ESE 2.3 mph 5.6 mph 94% 0.0 in WeatherDisplay:10.37 W/m2 FEW
20:49 0.6 °F -0.3 °F 1003.6 in ENE 2.9 mph 3.7 mph 94% 0.0 in WeatherDisplay:10.37 W/m2 FEW
20:54 0.6 °F -0.3 °F 1003.6 in East 2.1 mph 7.4 mph 94% 0.0 in WeatherDisplay:10.37 W/m2 FEW
20:59 0.6 °F -0.3 °F 1003.6 in East 3.4 mph 4.8 mph 94% 0.0 in WeatherDisplay:10.37 W/m2 FEW
21:04 0.6 °F -0.3 °F 1003.6 in SE 2.1 mph 5.6 mph 94% 0.0 in WeatherDisplay:10.37 W/m2 FEW
21:09 0.6 °F -0.3 °F 1003.6 in Calm   1.9 mph 94% 0.0 in WeatherDisplay:10.37 W/m2 FEW
21:14 0.6 °F -0.3 °F 1003.6 in ESE 0.5 mph 6.4 mph 94% 0.0 in WeatherDisplay:10.37 W/m2 FEW
21:19 0.6 °F -0.3 °F 1003.3 in SE 1.8 mph 7.4 mph 94% 0.0 in WeatherDisplay:10.37 W/m2 FEW
21:24 0.6 °F -0.3 °F 1003.3 in East 1.0 mph 4.8 mph 94% 0.0 in WeatherDisplay:10.37 W/m2 FEW
21:29 0.6 °F -0.3 °F 1003.3 in East 1.3 mph 5.6 mph 94% 0.0 in WeatherDisplay:10.37 W/m2 FEW
21:34 0.5 °F -0.3 °F 1003.3 in ENE 1.4 mph 5.6 mph 94% 0.0 in WeatherDisplay:10.37 W/m2 FEW
21:39 0.6 °F -0.3 °F 1003.3 in ENE 1.1 mph 13.0 mph 94% 0.0 in WeatherDisplay:10.37 W/m2 FEW
21:44 0.5 °F -0.3 °F 1003.3 in Calm   1.6 mph 94% 0.0 in WeatherDisplay:10.37 W/m2 FEW
21:49 0.5 °F -0.3 °F 1003.3 in East 5.0 mph 5.6 mph 94% 0.0 in WeatherDisplay:10.37 W/m2 FEW
21:54 0.5 °F -0.3 °F 1003.3 in ESE 5.5 mph 5.6 mph 94% 0.0 in WeatherDisplay:10.37 W/m2 FEW
21:59 0.6 °F -0.3 °F 1003.3 in ENE 3.2 mph 5.6 mph 94% 0.0 in WeatherDisplay:10.37 W/m2 FEW
22:04 0.5 °F -0.3 °F 1003.3 in SE 3.1 mph 9.3 mph 94% 0.0 in WeatherDisplay:10.37 W/m2 FEW
22:09 0.5 °F -0.3 °F 1003.3 in Calm   5.6 mph 94% 0.0 in WeatherDisplay:10.37 W/m2 FEW
22:14 0.5 °F -0.3 °F 1003.3 in ESE 3.2 mph 5.6 mph 94% 0.0 in WeatherDisplay:10.37 W/m2 FEW
22:20 0.6 °F -0.3 °F 1003.3 in NE 0.2 mph   94% 0.0 in WeatherDisplay:10.37 W/m2 FEW
22:25 0.6 °F -0.3 °F 1003.3 in Calm   5.6 mph 94% 0.0 in WeatherDisplay:10.37 W/m2 FEW
22:30 0.6 °F -0.3 °F 1003.3 in ENE 2.6 mph 5.6 mph 94% 0.0 in WeatherDisplay:10.37 W/m2 FEW
22:35 0.6 °F -0.3 °F 1003.3 in East 1.6 mph 5.6 mph 94% 0.0 in WeatherDisplay:10.37 W/m2 FEW
22:40 0.5 °F -0.3 °F 1002.9 in ENE 1.8 mph 7.4 mph 94% 0.0 in WeatherDisplay:10.37 W/m2 FEW
22:45 0.5 °F -0.3 °F 1002.9 in ENE 2.3 mph 5.6 mph 94% 0.0 in WeatherDisplay:10.37 W/m2 FEW
22:50 0.5 °F -0.3 °F 1002.9 in Calm     94% 0.0 in WeatherDisplay:10.37 W/m2 FEW
22:56 0.5 °F -0.3 °F 1002.9 in ENE 1.3 mph 5.6 mph 94% 0.0 in WeatherDisplay:10.37 W/m2 FEW
23:02 0.5 °F -0.3 °F 1002.9 in ENE 1.1 mph 3.7 mph 94% 0.0 in WeatherDisplay:10.37 W/m2 FEW
23:07 0.5 °F -0.3 °F 1002.9 in ENE 4.2 mph 5.6 mph 94% 0.0 in WeatherDisplay:10.37 W/m2 FEW
23:12 0.4 °F -0.4 °F 1002.9 in Calm   3.7 mph 94% 0.0 in WeatherDisplay:10.37 W/m2 FEW
23:17 0.5 °F -0.3 °F 1002.9 in ENE 6.4 mph 6.4 mph 94% 0.0 in WeatherDisplay:10.37 W/m2 FEW
23:22 0.4 °F -0.4 °F 1002.9 in SSE 3.4 mph 6.4 mph 94% 0.0 in WeatherDisplay:10.37 W/m2 FEW
23:27 0.4 °F -0.4 °F 1002.9 in Calm   5.6 mph 94% 0.0 in WeatherDisplay:10.37 W/m2 FEW
23:32 0.4 °F -0.4 °F 1002.9 in Calm   5.6 mph 94% 0.0 in WeatherDisplay:10.37 W/m2 FEW
23:37 0.4 °F -0.4 °F 1002.9 in East 1.0 mph 9.3 mph 94% 0.0 in WeatherDisplay:10.37 W/m2 FEW
23:42 0.4 °F -0.4 °F 1002.9 in ENE 1.4 mph 6.4 mph 94% 0.0 in WeatherDisplay:10.37 W/m2 FEW
23:47 0.4 °F -0.4 °F 1002.9 in East 3.7 mph 5.6 mph 94% 0.0 in WeatherDisplay:10.37 W/m2 FEW
23:52 0.4 °F -0.4 °F 1002.9 in East 1.3 mph   94% 0.0 in WeatherDisplay:10.37 W/m2 FEW
23:57 0.4 °F -0.4 °F 1002.9 in Calm   5.6 mph 94% 0.0 in WeatherDisplay:10.37 W/m2 FEW
Tuulensuunkaari, Veikkola, Suomi
Compliments of Weather Underground - 2.75 mb